DW7888 Weather Reports


time (UTC)temp
C
wind
direction
speed
KPH
gust
KPH
rain 1hr
cm
rain 24hr
cm
rain mn
cm
humidity
%
barometer
mb
20260901111013 21 5 0.0 0.0 0.00 0.00 0.00 95 1018.2
20260901110509 21 5 0.0 0.0 0.00 0.00 0.00 95 1018.1
20260901110023 21 5 0.0 0.0 0.00 0.00 0.00 95 1018.1
20260901105518 21 5 0.0 0.0 0.00 0.00 0.00 95 1018.1
20260901105009 21 5 0.0 0.0 0.00 0.00 0.00 95 1018.1
20260901104523 21 5 0.0 0.0 0.00 0.00 0.00 95 1018.1
20260901104018 21 5 0.0 0.0 0.00 0.00 0.00 95 1018.1
20260901103508 21 5 0.0 0.0 0.00 0.00 0.00 95 1018.0
20260901103023 21 5 0.0 0.0 0.00 0.00 0.00 94 1018.1
20260901102517 22 5 0.0 0.0 0.00 0.00 0.00 94 1018.1
20260901102010 22 5 0.0 0.0 0.00 0.00 0.00 94 1018.0
20260901101544 22 5 0.0 0.0 0.00 0.00 0.00 94 1018.1
20260901101018 22 5 0.0 0.0 0.00 0.00 0.00 95 1018.1
20260901100516 22 5 0.0 0.0 0.00 0.00 0.00 95 1018.2
20260901100025 22 5 0.0 0.0 0.00 0.00 0.00 94 1018.2
20260901095517 22 5 0.0 0.0 0.00 0.00 0.00 94 1018.2
20260901095012 22 5 0.0 0.0 0.00 0.00 0.00 94 1018.1
20260901094502 22 5 0.0 0.0 0.00 0.00 0.00 94 1018.1
20260901094001 22 5 0.0 0.0 0.00 0.00 0.00 94 1018.1
20260901093506 22 5 0.0 0.0 0.00 0.00 0.00 94 1018.0
20260901093010 22 5 0.0 0.0 0.00 0.00 0.00 94 1018.1
20260901092504 22 5 0.0 0.0 0.00 0.00 0.00 94 1018.2
20260901092002 22 5 0.0 0.0 0.00 0.00 0.00 94 1018.2
20260901091503 22 5 0.0 0.0 0.00 0.00 0.00 94 1018.1
20260901091002 22 5 0.0 0.0 0.00 0.00 0.00 94 1018.1
20260901090502 22 5 0.0 0.0 0.00 0.00 0.00 94 1018.0
20260901090006 22 5 0.0 0.0 0.00 0.00 0.00 94 1018.0
20260901085502 22 5 0.0 0.0 0.00 0.00 0.00 94 1018.0
20260901085001 22 5 0.0 0.0 0.00 0.00 0.00 94 1017.9
20260901084505 22 5 0.0 0.0 0.00 0.00 0.00 94 1018.0
20260901084002 22 5 0.0 0.0 0.00 0.00 0.00 93 1017.8
20260901083502 22 5 0.0 0.0 0.00 0.00 0.00 93 1017.9
20260901083003 22 5 0.0 0.0 0.00 0.00 0.00 93 1018.1
20260901082502 22 5 0.0 0.0 0.00 0.00 0.00 93 1018.1
20260901082001 22 5 0.0 0.0 0.00 0.00 0.00 93 1018.1
20260901081502 22 5 0.0 0.0 0.00 0.00 0.00 93 1018.0
20260901081002 22 5 0.0 0.0 0.00 0.00 0.00 93 1018.1
20260901080502 22 5 0.0 0.0 0.00 0.00 0.00 93 1018.2
20260901080003 22 5 0.0 0.0 0.00 0.00 0.00 93 1018.1
20260901075503 22 5 0.0 0.0 0.00 0.00 0.00 93 1018.1
20260901075004 22 5 0.0 0.0 0.00 0.00 0.00 92 1018.1
20260901074503 23 5 0.0 0.0 0.00 0.00 0.00 92 1018.1
20260901074002 23 5 0.0 0.0 0.00 0.00 0.00 92 1018.0
20260901073502 23 5 0.0 0.0 0.00 0.00 0.00 92 1018.0
20260901073003 23 5 0.0 0.0 0.00 0.00 0.00 92 1018.0
20260901072503 23 5 0.0 0.0 0.00 0.00 0.00 91 1018.1
20260901072003 23 5 0.0 0.0 0.00 0.00 0.00 91 1018.1
20260901071502 23 5 0.0 0.0 0.00 0.00 0.00 91 1018.2
20260901071002 23 5 0.0 0.0 0.00 0.00 0.00 91 1018.3
20260901070502 23 5 0.0 0.0 0.00 0.00 0.00 90 1018.3
20260901070004 23 5 0.0 0.0 0.00 0.00 0.00 90 1018.4
20260901065503 23 5 0.0 0.0 0.00 0.00 0.00 90 1018.4
20260901065004 23 5 0.0 3.2 0.00 0.00 0.00 90 1018.4
20260901064503 23 5 0.0 3.2 0.00 0.00 0.00 90 1018.4
20260901064001 23 5 0.0 3.2 0.00 0.00 0.00 90 1018.3
20260901063502 23 28 0.0 4.8 0.00 0.00 0.00 90 1018.4
20260901063009 23 134 0.0 4.8 0.00 0.00 0.00 89 1018.5
20260901062502 23 355 0.0 0.0 0.00 0.00 0.00 90 1018.5
20260901062003 23 355 0.0 0.0 0.00 0.00 0.00 90 1018.5
20260901061505 23 355 0.0 0.0 0.00 0.00 0.00 90 1018.5
20260901061003 23 355 0.0 0.0 0.00 0.00 0.00 90 1018.6
20260901060503 23 355 0.0 1.6 0.00 0.00 0.00 90 1018.7
20260901060006 23 355 0.0 1.6 0.00 0.00 0.00 90 1018.7
20260901055505 23 355 0.0 0.0 0.00 0.00 0.00 90 1018.7
20260901055010 23 355 0.0 0.0 0.00 0.00 0.00 90 1018.8
20260901054504 23 355 0.0 0.0 0.00 0.00 0.00 90 1018.8
20260901054003 23 355 0.0 0.0 0.00 0.00 0.00 90 1018.8
20260901053503 24 355 0.0 0.0 0.00 0.00 0.00 90 1018.8
20260901053005 24 355 0.0 0.0 0.00 0.00 0.00 90 1018.9
20260901052502 24 355 0.0 0.0 0.00 0.00 0.00 90 1018.9
20260901052007 24 355 0.0 0.0 0.00 0.00 0.00 90 1019.0
20260901051503 24 355 0.0 3.2 0.00 0.00 0.00 90 1018.9
20260901051002 24 355 0.0 3.2 0.00 0.00 0.00 90 1019.0
20260901050503 24 355 0.0 3.2 0.00 0.00 0.00 90 1019.1
20260901050008 24 69 0.0 1.6 0.00 0.00 0.00 89 1019.1
20260901045503 24 69 0.0 0.0 0.00 0.00 0.00 89 1019.1
20260901045010 24 69 0.0 0.0 0.00 0.00 0.00 89 1019.2
20260901044506 25 69 0.0 0.0 0.00 0.00 0.00 88 1019.2
20260901044002 25 69 0.0 0.0 0.00 0.00 0.00 88 1019.2
20260901043506 25 69 0.0 0.0 0.00 0.00 0.00 88 1019.2
20260901043014 25 69 0.0 1.6 0.00 0.00 0.00 87 1019.2
20260901042504 25 69 0.0 1.6 0.00 0.00 0.00 87 1019.2
20260901042007 25 88 0.0 1.6 0.00 0.00 0.00 86 1019.1
20260901041508 25 88 0.0 1.6 0.00 0.00 0.00 86 1019.1
20260901041003 25 123 0.0 0.0 0.00 0.00 0.00 86 1019.0
20260901040506 25 123 0.0 0.0 0.00 0.00 0.00 85 1019.0
20260901040007 25 123 0.0 1.6 0.00 0.00 0.00 85 1019.0
20260901035505 25 123 0.0 3.2 0.00 0.00 0.00 85 1019.0
20260901035005 25 114 0.0 3.2 0.00 0.00 0.00 84 1019.1
20260901034509 26 202 1.6 6.4 0.00 0.00 0.00 84 1019.1
20260901034009 26 179 0.0 6.4 0.00 0.00 0.00 84 1019.1
20260901033506 26 126 0.0 9.7 0.00 0.00 0.00 84 1019.0
20260901033010 26 134 0.0 9.7 0.00 0.00 0.00 83 1018.9
20260901032504 26 153 1.6 6.4 0.00 0.00 0.00 83 1019.0
20260901032010 26 119 0.0 8.0 0.00 0.00 0.00 82 1018.9
20260901031507 26 138 0.0 11.3 0.00 0.00 0.00 82 1018.8
20260901031003 26 116 3.2 11.3 0.00 0.00 0.00 82 1018.9
20260901030507 26 101 0.0 8.0 0.00 0.00 0.00 82 1018.9
20260901030003 26 123 0.0 8.0 0.00 0.00 0.00 82 1019.0
20260901025506 26 165 0.0 4.8 0.00 0.00 0.00 83 1018.9
20260901025009 26 168 0.0 6.4 0.00 0.00 0.00 83 1018.9
20260901024506 26 150 0.0 6.4 0.00 0.00 0.00 83 1018.9
20260901024008 26 209 0.0 1.6 0.00 0.00 0.00 83 1018.9
20260901023505 26 108 0.0 1.6 0.00 0.00 0.00 83 1018.9
20260901023003 26 108 0.0 1.6 0.00 0.00 0.00 83 1018.9
20260901022506 26 110 0.0 0.0 0.00 0.00 0.00 82 1019.0
20260901022017 26 110 0.0 0.0 0.00 0.00 0.00 82 1019.0
20260901021505 26 110 0.0 0.0 0.00 0.00 0.00 82 1019.0
20260901021008 26 110 0.0 0.0 0.00 0.00 0.00 81 1019.1
20260901020513 26 110 0.0 1.6 0.00 0.00 0.00 81 1019.1
20260901020011 26 110 0.0 1.6 0.00 0.00 0.00 81 1019.1
20260901015507 26 110 0.0 0.0 0.00 0.00 0.00 80 1019.1
20260901015008 26 110 0.0 0.0 0.00 0.00 0.00 80 1019.1
20260901014504 26 110 0.0 0.0 0.00 0.00 0.00 80 1018.9
20260901014010 26 110 0.0 0.0 0.00 0.00 0.00 80 1018.9
20260901013510 26 111 0.0 0.0 0.00 0.00 0.00 79 1018.9
20260901013004 26 112 0.0 3.2 0.00 0.00 0.00 79 1018.9
20260901012509 26 112 0.0 3.2 0.00 0.00 0.00 79 1018.8
20260901012009 26 112 0.0 1.6 0.00 0.00 0.00 79 1018.8
20260901011504 26 342 0.0 1.6 0.00 0.00 0.00 79 1018.8
20260901011011 26 25 0.0 1.6 0.00 0.00 0.00 79 1018.7
20260901010513 26 25 0.0 0.0 0.00 0.00 0.00 80 1018.7
20260901010005 26 25 0.0 0.0 0.00 0.00 0.00 81 1018.7
20260901005514 26 25 0.0 0.0 0.00 0.00 0.00 80 1018.6
20260901005013 26 25 0.0 0.0 0.00 0.00 0.00 81 1018.6
20260901004508 26 25 0.0 0.0 0.00 0.00 0.00 80 1018.7
20260901004010 27 25 0.0 0.0 0.00 0.00 0.00 80 1018.8
20260901003516 27 25 0.0 0.0 0.00 0.00 0.00 80 1018.8
20260901003008 27 25 0.0 0.0 0.00 0.00 0.00 79 1018.9
20260901002510 27 25 0.0 0.0 0.00 0.00 0.00 79 1018.8
20260901002012 27 25 0.0 0.0 0.00 0.00 0.00 79 1018.7
20260901001510 27 25 0.0 0.0 0.00 0.00 0.00 78 1018.7
20260901001011 27 25 0.0 0.0 0.00 0.00 0.00 78 1018.6
20260901000511 27 25 0.0 0.0 0.00 0.00 0.00 78 1018.5
20260901000010 27 25 0.0 1.6 0.00 0.00 0.00 77 1018.4
20260831235511 27 25 0.0 1.6 0.00 0.00 0.00 77 1018.3
20260831235011 27 25 0.0 0.0 0.00 0.00 0.00 76 1018.3
20260831234518 28 25 0.0 0.0 0.00 0.00 0.00 76 1018.3
20260831234010 28 25 0.0 0.0 0.00 0.00 0.00 74 1018.3
20260831233509 28 25 0.0 0.0 0.00 0.00 0.00 73 1018.3
20260831233019 28 25 0.0 0.0 0.00 0.00 0.00 72 1018.4
20260831232510 28 25 0.0 0.0 0.00 0.00 0.00 72 1018.4
20260831232015 29 25 0.0 0.0 0.00 0.00 0.00 72 1018.4
20260831231513 29 25 0.0 0.0 0.00 0.00 0.00 72 1018.3
20260831231012 29 25 0.0 0.0 0.00 0.00 0.00 69 1018.3
20260831230512 30 25 0.0 0.0 0.00 0.00 0.00 68 1018.2
20260831230015 30 25 0.0 0.0 0.00 0.00 0.00 67 1018.2
20260831225511 30 25 0.0 0.0 0.00 0.00 0.00 67 1018.2
20260831225010 30 25 0.0 0.0 0.00 0.00 0.00 67 1018.2
20260831224516 30 25 0.0 0.0 0.00 0.00 0.00 67 1018.2
20260831224012 30 25 0.0 0.0 0.00 0.00 0.00 67 1018.2
20260831223512 31 25 0.0 0.0 0.00 0.00 0.00 65 1018.2
20260831223016 31 25 0.0 3.2 0.00 0.00 0.00 65 1018.2
20260831222511 31 25 0.0 3.2 0.00 0.00 0.00 65 1018.2
20260831222013 31 25 0.0 3.2 0.00 0.00 0.00 64 1018.3
20260831221517 31 324 0.0 4.8 0.00 0.00 0.00 62 1018.3
20260831221010 31 309 0.0 4.8 0.00 0.00 0.00 61 1018.2
20260831220512 31 329 0.0 4.8 0.00 0.00 0.00 62 1018.2
20260831220024 31 333 0.0 4.8 0.00 0.00 0.00 60 1018.1
20260831215515 32 5 0.0 3.2 0.00 0.00 0.00 60 1018.2
20260831215012 32 355 0.0 4.8 0.00 0.00 0.00 59 1018.1
20260831214523 32 311 0.0 4.8 0.00 0.00 0.00 58 1018.1
20260831214015 32 355 0.0 4.8 0.00 0.00 0.00 58 1018.0
20260831213514 32 39 0.0 4.8 0.00 0.00 0.00 59 1018.1
20260831213032 32 313 1.6 4.8 0.00 0.00 0.00 56 1018.1
20260831212517 32 341 0.0 3.2 0.00 0.00 0.00 57 1018.2
20260831212018 32 327 0.0 6.4 0.00 0.00 0.00 58 1018.2
20260831211522 32 327 0.0 8.0 0.00 0.00 0.00 57 1018.2
20260831211014 32 344 3.2 8.0 0.00 0.00 0.00 56 1018.2
20260831210508 32 343 4.8 8.0 0.00 0.00 0.00 56 1018.2
20260831210025 32 346 0.0 8.0 0.00 0.00 0.00 56 1018.1
20260831205514 32 47 0.0 6.4 0.00 0.00 0.00 57 1018.1
20260831205010 32 355 0.0 6.4 0.00 0.00 0.00 55 1018.1
20260831204523 32 348 0.0 6.4 0.00 0.00 0.00 57 1018.1
20260831204016 32 14 0.0 6.4 0.00 0.00 0.00 57 1018.1
20260831203509 32 335 0.0 4.8 0.00 0.00 0.00 57 1018.2
20260831203025 32 335 0.0 6.4 0.00 0.00 0.00 55 1018.2
20260831202513 32 306 0.0 12.9 0.00 0.00 0.00 55 1018.2
20260831202012 33 318 1.6 12.9 0.00 0.00 0.00 54 1018.3
20260831201537 33 355 1.6 4.8 0.00 0.00 0.00 53 1018.3
20260831201023 33 5 1.6 4.8 0.00 0.00 0.00 52 1018.3
20260831200512 33 347 1.6 4.8 0.00 0.00 0.00 53 1018.3
20260831200032 33 328 1.6 6.4 0.00 0.00 0.00 52 1018.3
20260831195516 33 14 1.6 6.4 0.00 0.00 0.00 53 1018.3
20260831195015 33 321 0.0 9.7 0.00 0.00 0.00 51 1018.3
20260831194545 33 40 1.6 9.7 0.00 0.00 0.00 53 1018.3
20260831194016 33 336 1.6 9.7 0.00 0.00 0.00 54 1018.3
20260831193520 33 5 3.2 8.0 0.00 0.00 0.00 55 1018.3
20260831193028 33 347 0.0 8.0 0.00 0.00 0.00 58 1018.4
20260831192518 33 39 1.6 8.0 0.00 0.00 0.00 54 1018.3
20260831192014 33 319 3.2 8.0 0.00 0.00 0.00 53 1018.4
20260831191534 33 174 1.6 4.8 0.00 0.00 0.00 56 1018.4
20260831191015 33 63 0.0 4.8 0.00 0.00 0.00 58 1018.5
20260831190512 33 38 3.2 6.4 0.00 0.00 0.00 56 1018.6
20260831190030 32 300 1.6 6.4 0.00 0.00 0.00 58 1018.7
20260831185517 32 16 3.2 8.0 0.00 0.00 0.00 55 1018.8
20260831185013 33 331 1.6 8.0 0.00 0.00 0.00 57 1018.8
20260831184504 33 343 0.0 6.4 0.00 0.00 0.00 59 1018.8
20260831184008 32 5 0.0 6.4 0.00 0.00 0.00 56 1018.8
20260831183503 32 114 1.6 6.4 0.00 0.00 0.00 59 1018.8
20260831183007 32 42 1.6 6.4 0.00 0.00 0.00 55 1019.0
20260831182511 32 342 3.2 6.4 0.00 0.00 0.00 57 1018.9
20260831182004 32 51 1.6 6.4 0.00 0.00 0.00 56 1019.0
20260831181516 32 9 0.0 8.0 0.00 0.00 0.00 60 1019.0
20260831181010 32 313 0.0 8.0 0.00 0.00 0.00 58 1019.1
20260831180505 32 21 1.6 8.0 0.00 0.00 0.00 61 1019.2
20260831180006 32 261 0.0 0.0 0.00 0.00 0.00 61 1019.2
20260831175516 32 320 0.0 3.2 0.00 0.00 0.00 59 1019.2
20260831175003 32 72 0.0 4.8 0.00 0.00 0.00 58 1019.2
20260831174507 32 50 0.0 4.8 0.00 0.00 0.00 60 1019.3
20260831174011 32 59 1.6 6.4 0.00 0.00 0.00 61 1019.3
20260831173516 32 28 3.2 6.4 0.00 0.00 0.00 63 1019.3
20260831173010 32 24 1.6 6.4 0.00 0.00 0.00 59 1019.4
20260831172517 32 239 0.0 4.8 0.00 0.00 0.00 58 1019.3
20260831172002 31 336 3.2 8.0 0.00 0.00 0.00 58 1019.4
20260831171510 31 69 0.0 8.0 0.00 0.00 0.00 59 1019.4
20260831171012 31 333 1.6 6.4 0.00 0.00 0.00 59 1019.4
20260831170503 31 329 1.6 6.4 0.00 0.00 0.00 63 1019.3
20260831170033 31 5 1.6 6.4 0.00 0.00 0.00 63 1019.3
20260831165514 31 119 0.0 6.4 0.00 0.00 0.00 63 1019.4
20260831165004 31 190 3.2 6.4 0.00 0.00 0.00 63 1019.5
20260831164510 31 306 0.0 6.4 0.00 0.00 0.00 64 1019.6
20260831164005 31 355 1.6 8.0 0.00 0.00 0.00 65 1019.7
20260831163504 31 345 1.6 8.0 0.00 0.00 0.00 64 1019.7
20260831163014 31 343 0.0 6.4 0.00 0.00 0.00 70 1019.8
20260831162503 31 347 1.6 6.4 0.00 0.00 0.00 68 1019.9
20260831162003 30 332 1.6 6.4 0.00 0.00 0.00 68 1019.9
20260831161515 30 345 1.6 4.8 0.00 0.00 0.00 68 1019.9
20260831161003 30 30 1.6 4.8 0.00 0.00 0.00 69 1019.9
20260831160503 30 355 1.6 4.8 0.00 0.00 0.00 70 1019.9
20260831160025 30 355 0.0 4.8 0.00 0.00 0.00 69 1019.9
20260831155503 30 331 0.0 3.2 0.00 0.00 0.00 68 1020.0
20260831155006 30 310 0.0 0.0 0.00 0.00 0.00 69 1020.0
20260831154545 30 42 0.0 0.0 0.00 0.00 0.00 69 1020.0
20260831154005 29 301 0.0 6.4 0.00 0.00 0.00 72 1020.0
20260831153523 29 104 0.0 8.0 0.00 0.00 0.00 74 1020.1
20260831153018 29 313 3.2 8.0 0.00 0.00 0.00 72 1020.1
20260831152503 29 26 1.6 6.4 0.00 0.00 0.00 73 1020.1
20260831152005 30 66 1.6 6.4 0.00 0.00 0.00 73 1020.1
20260831151520 29 105 0.0 4.8 0.00 0.00 0.00 77 1020.1
20260831151003 28 27 1.6 4.8 0.00 0.00 0.00 75 1020.0
20260831150505 29 101 0.0 3.2 0.00 0.00 0.00 77 1020.1
20260831150031 28 39 0.0 4.8 0.00 0.00 0.00 76 1020.1
20260831145504 28 124 0.0 6.4 0.00 0.00 0.00 78 1020.1
20260831145006 28 44 1.6 6.4 0.00 0.00 0.00 77 1020.1
20260831144529 27 331 0.0 4.8 0.00 0.00 0.00 79 1020.1
20260831144013 27 338 1.6 4.8 0.00 0.00 0.00 78 1020.1
20260831143509 27 36 1.6 6.4 0.00 0.00 0.00 79 1020.2
20260831143033 27 315 1.6 6.4 0.00 0.00 0.00 79 1020.2
20260831142503 27 360 0.0 4.8 0.00 0.00 0.00 80 1020.1
20260831142011 26 336 0.0 3.2 0.00 0.00 0.00 81 1020.2
20260831141519 26 47 0.0 3.2 0.00 0.00 0.00 81 1020.1
20260831141005 26 5 0.0 6.4 0.00 0.00 0.00 82 1020.2
20260831140507 26 5 0.0 6.4 0.00 0.00 0.00 81 1020.1
20260831140026 26 355 0.0 3.2 0.00 0.00 0.00 82 1020.2
20260831135504 26 355 0.0 4.8 0.00 0.00 0.00 82 1020.2
20260831135010 26 355 0.0 4.8 0.00 0.00 0.00 82 1020.2
20260831134527 26 5 1.6 3.2 0.00 0.00 0.00 82 1020.1
20260831134005 26 9 0.0 6.4 0.00 0.00 0.00 83 1020.1
20260831133511 26 344 0.0 8.0 0.00 0.00 0.00 82 1020.1
20260831133027 26 350 3.2 8.0 0.00 0.00 0.00 82 1020.1
20260831132503 26 348 1.6 8.0 0.00 0.00 0.00 83 1020.1
20260831132012 26 193 0.0 4.8 0.00 0.00 0.00 84 1020.1
20260831131527 25 61 0.0 4.8 0.00 0.00 0.00 83 1020.0
20260831131007 25 13 0.0 4.8 0.00 0.00 0.00 85 1020.2
20260831130513 25 5 0.0 4.8 0.00 0.00 0.00 83 1020.2
20260831130026 25 355 0.0 6.4 0.00 0.00 0.00 84 1020.3
20260831125511 25 346 0.0 6.4 0.00 0.00 0.00 84 1020.3
20260831125016 25 360 1.6 4.8 0.00 0.00 0.00 84 1020.2
20260831124527 25 352 1.6 4.8 0.00 0.00 0.00 84 1020.1
20260831124005 25 333 0.0 4.8 0.00 0.00 0.00 84 1020.1
20260831123512 25 156 0.0 4.8 0.00 0.00 0.00 85 1020.1
20260831123029 25 76 0.0 6.4 0.00 0.00 0.00 85 1020.0
20260831122506 25 121 1.6 6.4 0.00 0.00 0.00 86 1020.0
20260831122011 24 121 0.0 3.2 0.00 0.00 0.00 87 1020.0
20260831121537 24 28 0.0 4.8 0.00 0.00 0.00 87 1019.9
20260831121008 23 26 0.0 4.8 0.00 0.00 0.00 88 1019.8
20260831120518 23 111 0.0 3.2 0.00 0.00 0.00 89 1019.7
20260831120030 23 5 0.0 0.0 0.00 0.00 0.00 89 1019.8
20260831115508 23 34 0.0 0.0 0.00 0.00 0.00 90 1019.8
20260831115014 23 34 0.0 0.0 0.00 0.00 0.00 90 1019.8
20260831114533 22 5 0.0 0.0 0.00 0.00 0.00 90 1019.8
20260831114008 22 5 0.0 0.0 0.00 0.00 0.00 91 1019.8
20260831113515 22 5 0.0 0.0 0.00 0.00 0.00 90 1019.8
20260831113033 22 5 0.0 0.0 0.00 0.00 0.00 90 1019.7
20260831112513 22 5 0.0 1.6 0.00 0.00 0.00 90 1019.6
20260831112014 22 5 0.0 1.6 0.00 0.00 0.00 90 1019.6
20260831111549 22 57 0.0 0.0 0.00 0.00 0.00 90 1019.5